Wind_Speed
18 18 19 19 19 19 19 20 20 20 21 21 21 21 20 19 19 19 19 19 19 18 18 18 19 19 19 19 19 19 18 18 17 16 16 16 16 17 17 17 16 16 16
19 19 19 19 19 20 20 21 21 21 21 21 21 21 20 19 18 19 19 19 19 19 19 19 19 19 19 19 20 19 19 19 18 18 17 17 17 17 17 17 16 16 16
19 19 19 20 20 20 20 21 22 22 21 21 21 21 21 20 18 18 18 18 18 19 19 19 19 19 19 20 20 20 20 20 19 19 18 18 18 18 17 17 17 17 17
19 19 19 20 20 20 21 21 21 22 22 22 22 22 21 21 20 20 20 19 20 20 20 21 21 20 20 21 20 21 21 21 20 20 19 19 18 18 18 18 18 18 17
19 19 19 20 20 20 21 21 22 22 22 22 22 22 22 22 22 22 22 22 22 22 21 21 21 21 21 21 21 21 21 21 21 20 19 19 19 19 19 19 19 19 19
19 19 20 20 21 21 22 22 22 22 23 23 22 22 23 23 23 23 23 23 24 23 23 22 22 21 21 21 21 21 21 21 21 20 20 19 19 19 19 19 19 19 20
19 20 20 21 21 22 22 23 23 23 23 23 23 23 23 24 24 24 24 24 25 24 23 23 22 21 21 21 21 22 22 22 21 21 20 20 20 20 20 20 20 20 20
20 20 21 21 21 22 22 23 23 23 23 23 24 24 24 25 25 25 24 24 25 24 24 23 22 21 21 22 22 23 23 23 22 22 21 21 21 21 21 21 21 21 22
22 22 21 21 22 23 23 23 24 24 23 24 24 25 25 25 25 25 24 25 25 25 25 24 23 23 23 23 23 23 23 24 24 23 22 23 22 22 22 22 22 22 22
23 23 23 23 24 24 25 25 25 25 25 25 26 26 25 24 25 25 26 26 26 26 25 24 24 24 24 24 24 24 24 24 24 24 23 24 23 23 23 24 24 23 23
24 24 24 25 25 26 26 26 25 26 26 26 26 26 25 25 25 26 27 27 27 26 25 25 25 26 26 25 25 25 25 25 25 25 25 25 25 25 24 25 25 24 24
27 26 26 26 26 26 26 26 26 26 26 26 26 26 26 26 26 26 27 27 27 27 27 26 26 27 27 27 27 28 28 27 27 27 26 26 26 26 26 25 25 26 25
28 28 28 28 27 27 27 27 26 27 27 26 27 26 26 27 27 27 27 28 28 28 27 27 27 28 28 27 28 29 29 29 28 28 28 28 27 27 27 27 26 27 27
30 30 29 29 28 28 28 27 27 28 28 28 28 28 28 28 28 28 28 29 28 28 28 27 28 28 28 28 29 30 30 29 29 30 29 29 29 29 29 29 28 27 27
30 30 30 30 29 29 28 28 28 29 29 29 29 29 29 28 28 28 29 29 29 28 28 28 29 30 29 28 29 30 31 31 31 31 30 30 30 30 30 30 30 29 29
30 30 30 29 29 29 29 29 29 30 30 30 30 29 29 29 29 29 29 30 30 30 29 29 29 30 31 29 30 30 31 31 31 31 31 31 31 31 31 31 31 30 29
30 30 30 30 29 29 29 29 29 29 29 30 30 30 30 30 30 30 30 30 31 31 30 30 30 31 31 30 30 31 31 31 31 31 31 31 31 31 31 31 31 31 30
30 30 30 30 30 30 30 29 29 29 29 30 30 30 30 30 30 30 30 30 31 31 31 30 30 31 31 31 31 31 32 32 32 32 32 31 32 32 32 32 32 32 32
30 30 30 31 31 31 30 30 30 30 30 30 31 32 32 32 31 31 31 31 31 31 31 31 30 31 31 31 31 31 31 31 32 33 33 33 33 33 33 32 32 33 32
31 30 31 31 30 30 31 31 31 31 31 31 32 32 33 33 33 33 32 32 31 31 31 32 31 31 32 31 32 32 31 32 33 33 34 34 34 34 34 34 34 34 34
30 31 30 30 30 30 30 31 31 31 32 32 32 32 33 33 33 32 33 32 32 32 32 32 32 32 33 33 33 32 33 34 34 34 34 35 35 35 35 35 36 36 35
31 31 30 30 31 31 31 31 31 31 32 32 32 32 32 33 33 33 33 33 33 33 33 32 32 33 33 34 34 34 34 34 34 34 35 36 36 36 36 36 35 35 35
31 30 30 31 31 31 31 31 31 32 32 32 32 32 32 32 33 33 33 34 34 34 33 33 33 33 34 34 34 34 34 34 34 35 35 36 36 36 36 36 36 36 36
30 30 30 30 30 31 31 32 32 32 32 32 32 32 32 33 32 33 33 33 34 34 34 33 33 33 33 34 34 34 34 35 35 35 36 36 36 36 37 37 37 37 38
29 29 29 29 30 30 31 31 32 32 32 32 33 33 33 33 32 32 32 32 33 33 34 34 34 34 34 34 34 34 35 35 35 35 35 36 36 37 37 37 37 37 38
29 29 30 30 31 31 31 32 32 33 33 33 33 33 33 33 33 33 33 33 33 33 33 34 34 34 35 34 35 35 35 35 35 35 36 36 36 36 37 37 37 37 37
Wind_Direction
284 283 282 282 282 283 284 285 285 284 284 283 284 285 287 281 277 273 270 270 271 272 274 278 281 280 276 274 275 276 275 273 273 273 276 276 275 275 274 271 267 269 273
282 281 280 280 281 283 283 285 284 285 285 285 284 285 285 283 280 276 271 270 271 271 274 278 280 280 277 276 276 275 275 274 274 275 276 277 275 273 271 268 269 269 273
282 281 280 280 282 282 284 285 285 285 286 285 284 283 281 280 280 276 272 271 272 272 274 277 280 279 278 277 276 276 276 275 275 275 276 276 274 271 268 268 269 269 272
287 284 283 282 283 283 284 285 286 286 287 286 285 283 282 279 277 276 273 273 273 273 275 276 280 278 277 276 276 277 277 275 273 273 274 274 272 270 269 269 270 270 272
286 285 285 284 283 283 285 285 285 285 286 285 285 283 281 279 277 275 274 274 274 274 275 276 277 277 275 274 274 275 277 276 274 272 273 273 271 270 269 270 270 269 270
285 286 286 285 284 284 285 286 286 285 285 284 283 282 279 278 277 277 275 275 276 275 275 276 277 276 275 274 273 273 274 274 274 272 271 272 271 270 270 271 271 270 269
286 287 286 286 287 286 286 288 288 287 286 284 282 281 279 277 277 276 275 276 276 277 275 275 276 276 273 272 272 272 273 273 272 272 272 271 269 269 269 271 271 272 271
285 285 286 286 286 286 287 289 289 289 287 286 285 283 281 279 278 276 275 276 275 275 274 274 274 274 273 272 272 272 271 271 271 271 271 271 269 268 269 271 271 272 272
285 285 284 284 285 287 288 288 289 290 289 288 287 285 282 281 278 276 276 275 275 275 274 273 273 272 272 272 271 271 270 270 270 270 271 270 270 269 270 272 273 274 273
285 285 284 285 286 287 286 286 287 288 288 288 287 286 284 281 279 277 275 274 275 274 273 272 270 270 271 270 270 270 270 270 270 270 270 270 270 270 271 271 271 273 273
283 284 285 286 288 287 286 286 286 287 287 287 287 286 285 282 280 278 277 275 273 271 271 270 268 269 270 269 270 270 270 269 270 270 270 270 271 272 273 273 272 271 272
282 283 284 285 286 286 286 285 285 286 287 288 287 285 284 283 282 280 278 275 272 271 271 270 268 268 269 269 269 269 269 269 269 270 270 271 272 272 273 273 271 269 269
281 282 284 285 285 286 285 285 285 285 286 286 286 285 284 282 281 279 279 277 276 274 272 270 268 268 270 271 269 269 269 269 270 270 270 270 271 272 270 271 270 269 270
282 283 284 284 284 284 284 283 283 284 284 284 284 283 283 283 282 280 279 279 278 277 273 270 267 267 270 271 269 268 269 270 270 270 270 269 269 270 270 270 270 270 269
283 284 285 284 283 282 282 283 283 284 285 284 284 283 283 282 282 280 279 278 278 277 275 271 268 267 270 272 271 269 269 270 270 269 269 268 268 268 270 271 270 270 269
283 284 284 285 284 283 282 281 282 283 284 284 284 284 283 282 281 281 279 279 278 276 276 273 269 268 269 272 271 270 270 271 270 269 268 267 267 267 268 269 270 269 269
283 283 283 283 283 283 283 283 283 283 284 285 285 284 282 283 283 281 281 279 279 278 278 276 272 269 269 270 271 270 269 269 269 269 268 267 268 268 268 268 268 268 268
283 283 282 281 281 282 282 283 284 285 285 285 285 285 284 284 283 282 281 281 280 279 278 277 275 272 270 271 272 270 268 268 269 268 268 269 268 268 268 268 268 268 268
284 283 281 280 280 281 281 282 283 284 284 284 285 285 285 285 283 282 281 281 280 279 278 277 276 273 270 270 271 271 269 270 270 269 269 269 268 268 268 268 269 269 268
283 282 282 280 279 279 280 281 282 283 284 285 285 285 285 285 284 282 282 281 280 279 279 277 275 273 271 270 271 270 270 271 271 271 271 270 268 268 268 268 268 268 268
284 283 283 281 279 278 280 281 282 282 283 284 285 285 285 285 284 282 281 280 279 278 278 277 274 273 271 269 271 270 271 272 271 271 271 270 269 268 268 269 269 268 268
285 283 283 282 281 279 280 281 281 282 283 284 284 284 285 285 284 283 281 279 278 278 277 276 274 273 272 269 271 270 271 272 272 272 271 271 270 270 269 268 269 269 269
285 283 282 282 282 282 281 281 282 283 284 284 285 284 285 285 285 283 281 279 278 278 279 277 275 274 273 272 273 272 271 271 272 273 273 272 271 270 270 269 269 269 269
284 283 282 282 282 282 283 283 284 284 285 284 284 284 284 285 285 284 282 281 280 280 279 278 276 274 274 274 275 273 272 272 272 273 272 271 271 270 270 269 269 269 269
284 283 283 282 283 284 284 284 285 285 285 285 284 283 283 283 284 284 282 281 282 281 280 278 276 274 276 275 275 274 273 272 272 272 272 272 272 271 270 269 270 270 270
285 284 284 284 285 284 284 284 285 285 285 285 284 284 283 282 282 282 282 282 282 282 281 279 277 276 276 277 276 275 274 273 271 271 271 271 271 271 270 270 270 270 271
Height
5798 5797 5796 5795 5795 5794 5794 5793 5792 5791 5790 5789 5788 5787 5786 5785 5784 5784 5784 5784 5784 5784 5783 5783 5782 5781 5780 5780 5779 5779 5778 5778 5778 5778 5777 5777 5776 5776 5776 5776 5776 5777 5777
5792 5791 5791 5790 5789 5788 5788 5787 5786 5785 5784 5783 5782 5781 5780 5779 5778 5778 5778 5778 5778 5778 5777 5777 5776 5775 5774 5774 5773 5773 5773 5772 5772 5772 5772 5771 5771 5771 5771 5771 5771 5772 5772
5787 5786 5785 5784 5783 5782 5781 5780 5779 5778 5777 5776 5776 5774 5774 5773 5773 5772 5772 5772 5772 5772 5771 5771 5770 5769 5768 5768 5767 5767 5767 5766 5766 5766 5766 5765 5765 5765 5765 5765 5765 5766 5766
5781 5780 5779 5778 5777 5776 5775 5774 5773 5772 5771 5770 5769 5768 5767 5767 5766 5766 5766 5766 5766 5766 5765 5764 5764 5762 5762 5761 5761 5760 5760 5760 5759 5759 5759 5759 5759 5759 5759 5760 5760 5760 5760
5776 5775 5774 5772 5771 5770 5769 5768 5767 5765 5764 5763 5762 5761 5760 5760 5760 5760 5760 5759 5759 5759 5758 5757 5757 5756 5755 5755 5754 5754 5753 5753 5753 5752 5753 5753 5753 5753 5753 5754 5754 5754 5754
5770 5769 5768 5767 5765 5764 5763 5762 5760 5759 5757 5756 5755 5754 5754 5753 5753 5753 5752 5752 5752 5751 5751 5750 5750 5749 5748 5748 5747 5747 5747 5747 5746 5746 5746 5746 5747 5747 5747 5747 5747 5748 5748
5763 5762 5761 5760 5759 5758 5756 5755 5753 5752 5750 5749 5748 5747 5746 5746 5745 5745 5744 5744 5744 5744 5743 5743 5742 5742 5741 5741 5741 5740 5740 5740 5740 5740 5740 5740 5740 5741 5741 5741 5741 5741 5741
5757 5756 5755 5754 5753 5751 5750 5748 5747 5745 5743 5742 5740 5739 5739 5738 5737 5737 5737 5737 5736 5736 5735 5735 5735 5734 5734 5734 5734 5734 5734 5733 5733 5733 5733 5734 5734 5734 5734 5734 5734 5734 5734
5751 5750 5748 5747 5746 5745 5743 5742 5740 5738 5737 5735 5734 5732 5731 5730 5730 5729 5729 5729 5728 5728 5728 5727 5727 5727 5727 5726 5726 5726 5726 5726 5726 5726 5726 5726 5726 5727 5727 5727 5727 5727 5727
5745 5743 5742 5741 5739 5738 5736 5734 5733 5731 5730 5728 5727 5725 5724 5723 5722 5721 5721 5720 5720 5720 5720 5719 5719 5719 5718 5718 5718 5718 5719 5719 5718 5719 5719 5719 5719 5720 5720 5720 5720 5720 5720
5737 5736 5735 5733 5732 5730 5729 5727 5725 5724 5722 5721 5719 5718 5716 5715 5714 5713 5712 5711 5711 5711 5711 5711 5711 5710 5710 5710 5710 5711 5711 5711 5711 5711 5711 5711 5711 5712 5712 5712 5712 5713 5713
5730 5729 5727 5726 5724 5722 5721 5719 5718 5716 5715 5713 5711 5710 5709 5707 5706 5704 5703 5702 5702 5702 5702 5702 5702 5701 5701 5701 5702 5702 5702 5703 5703 5703 5703 5703 5704 5704 5704 5704 5704 5704 5705
5722 5721 5719 5718 5716 5714 5713 5711 5710 5708 5707 5705 5704 5702 5701 5699 5698 5696 5695 5694 5693 5693 5693 5693 5693 5693 5692 5692 5693 5693 5693 5694 5694 5694 5695 5695 5695 5695 5695 5696 5696 5696 5696
5714 5712 5711 5709 5707 5706 5704 5703 5701 5700 5698 5697 5696 5694 5693 5691 5689 5688 5687 5685 5685 5684 5683 5683 5683 5683 5683 5683 5683 5684 5684 5685 5685 5686 5686 5686 5686 5686 5687 5687 5687 5687 5688
5705 5703 5701 5700 5699 5697 5696 5694 5693 5692 5690 5688 5687 5685 5684 5683 5681 5679 5678 5677 5676 5675 5674 5674 5674 5673 5674 5674 5674 5674 5675 5675 5675 5676 5676 5677 5677 5677 5678 5678 5678 5679 5679
5695 5694 5692 5691 5690 5688 5687 5686 5684 5682 5681 5679 5678 5676 5675 5673 5671 5670 5668 5667 5666 5665 5665 5664 5664 5664 5664 5664 5664 5664 5665 5665 5666 5666 5666 5667 5667 5668 5668 5669 5669 5669 5670
5686 5684 5683 5682 5680 5679 5678 5676 5675 5673 5671 5670 5668 5667 5665 5664 5662 5661 5659 5658 5657 5656 5655 5655 5655 5654 5654 5654 5654 5654 5655 5655 5656 5656 5656 5657 5657 5658 5658 5659 5659 5660 5661
5676 5675 5673 5672 5671 5670 5668 5667 5666 5664 5663 5661 5659 5657 5655 5654 5653 5651 5650 5648 5647 5646 5645 5645 5645 5644 5644 5644 5644 5644 5644 5645 5646 5646 5647 5647 5647 5648 5648 5649 5649 5650 5651
5667 5665 5664 5662 5661 5660 5659 5658 5656 5655 5653 5652 5650 5648 5646 5644 5643 5641 5640 5639 5637 5636 5635 5635 5635 5634 5634 5634 5634 5634 5634 5635 5636 5636 5637 5637 5637 5638 5638 5639 5639 5640 5640
5657 5655 5654 5652 5651 5650 5649 5648 5646 5645 5643 5641 5640 5638 5636 5634 5633 5631 5630 5628 5627 5626 5625 5625 5625 5624 5624 5624 5624 5624 5624 5625 5625 5625 5626 5626 5627 5627 5627 5628 5628 5629 5629
5647 5645 5643 5642 5641 5640 5639 5637 5636 5634 5633 5631 5629 5627 5625 5624 5622 5621 5619 5618 5617 5616 5615 5614 5614 5614 5613 5614 5613 5614 5614 5614 5614 5614 5615 5615 5615 5616 5616 5617 5617 5617 5618
5637 5635 5634 5632 5631 5630 5629 5627 5626 5624 5623 5621 5619 5617 5615 5613 5611 5610 5609 5607 5606 5605 5604 5604 5603 5603 5603 5603 5603 5603 5603 5603 5603 5603 5603 5603 5604 5604 5604 5605 5606 5606 5607
5627 5625 5624 5623 5621 5620 5618 5617 5615 5614 5612 5610 5608 5606 5604 5602 5601 5599 5597 5596 5595 5594 5593 5593 5592 5592 5592 5592 5591 5591 5591 5591 5591 5591 5591 5591 5592 5592 5593 5593 5594 5594 5595
5617 5616 5614 5613 5611 5610 5608 5606 5605 5603 5601 5599 5597 5595 5594 5592 5590 5588 5586 5585 5584 5583 5582 5581 5581 5581 5581 5580 5580 5579 5579 5579 5579 5579 5579 5580 5580 5581 5581 5582 5582 5582 5583
5607 5606 5604 5603 5601 5600 5598 5596 5594 5592 5590 5588 5586 5584 5583 5581 5579 5577 5576 5574 5573 5572 5571 5570 5570 5570 5569 5568 5568 5567 5567 5567 5568 5567 5568 5568 5568 5569 5569 5569 5570 5570 5570
5598 5596 5594 5593 5591 5589 5587 5585 5583 5581 5579 5577 5575 5573 5571 5570 5568 5567 5565 5564 5563 5561 5560 5559 5559 5558 5558 5557 5556 5556 5556 5556 5555 5555 5556 5556 5557 5557 5557 5557 5557 5558 5558